Simultaneous Nadir Overpasses (SNOs) Predictions

Prediction of SNOs between AURA and NPP Satellite Orbit:

Table of predicted SNOs for the next 14.0 days since TLE Epoch: 4/7/2012
Index Date (AURA) Time (AURA) AURA Lat,Lon Date (NPP) Time (NPP) NPP Lat,Lon Distance(km) Time Diff (sec)
1 04/08/2012 19:58:16 79.92, 140.54 04/08/2012 19:57:30 79.93, 140.69 3.08 46
2 04/08/2012 20:47:40 -80.02, -50.94 04/08/2012 20:48:12 -80.02, -51.08 2.73 32
3 04/11/2012 12:14:46 79.92,-103.56 04/11/2012 12:14:24 79.91,-103.68 2.44 22
4 04/11/2012 13:04:08 -80.10, 65.56 04/11/2012 13:05:03 -80.09, 65.46 2.00 55
5 04/14/2012 03:43:36 -75.30,-176.52 04/14/2012 03:42:23 -75.57,-178.32 58.44 73
6 04/14/2012 04:31:13 80.04, 13.31 04/14/2012 04:31:14 80.05, 13.45 2.86 1
7 04/16/2012 19:58:21
